• In Italy
  • List of Countries
  • For 7 days
  • Water Temperature
  • Satellite Maps
  • Weather Map
  • Weather Widgets
  • user-avatar
    Login

    Hourly Weather Miskolc

    Today, 19 February, Monday

    Time Temperature Precipitation Wind Pressure Humidity
    00:00 -4°C° 0 mm 3 mps 755 mmHg 79%
    01:00 -4°C° 0 mm 4 mps 755 mmHg 77%
    02:00 -4°C° 0 mm 4 mps 755 mmHg 77%
    03:00 -4°C° 0 mm 3 mps 755 mmHg 76%
    04:00 -5°C° 0 mm 3 mps 754 mmHg 75%
    05:00 -5°C° 0 mm 3 mps 754 mmHg 75%
    06:00 -5°C° 0 mm 3 mps 754 mmHg 74%
    07:00 -5°C° 0 mm 3 mps 754 mmHg 74%
    08:00 -4°C° 0 mm 3 mps 754 mmHg 68%
    09:00 -1°C° 0 mm 3 mps 754 mmHg 63%
    10:00 0°C° 0 mm 3 mps 753 mmHg 57%
    11:00 +1°C° 0 mm 3 mps 753 mmHg 55%
    12:00 +2°C° 0 mm 3 mps 753 mmHg 52%
    13:00 +3°C° 0 mm 3 mps 752 mmHg 50%
    14:00 +2°C° 0 mm 3 mps 752 mmHg 53%
    15:00 +2°C° 0 mm 3 mps 751 mmHg 56%
    16:00 +3°C° 0 mm 2 mps 751 mmHg 59%
    17:00 +2°C° 0 mm 2 mps 751 mmHg 62%
    18:00 +1°C° 0 mm 2 mps 751 mmHg 66%
    19:00 -1°C° 0 mm 2 mps 751 mmHg 69%
    20:00 -2°C° 0 mm 2 mps 751 mmHg 70%
    21:00 -2°C° 0 mm 2 mps 751 mmHg 70%
    22:00 -2°C° 0 mm 2 mps 751 mmHg 71%
    23:00 -2°C° 0 mm 3 mps 750 mmHg 71%

    Tomorrow, 20 February, Tuesday

    Time Temperature Precipitation Wind Pressure Humidity
    00:00 -2°C° 0 mm 3 mps 750 mmHg 71%
    01:00 -2°C° 0 mm 3 mps 750 mmHg 71%
    02:00 -2°C° 0 mm 3 mps 750 mmHg 71%
    03:00 -2°C° 0 mm 3 mps 749 mmHg 71%
    04:00 -2°C° 0 mm 3 mps 749 mmHg 71%
    05:00 -2°C° 0 mm 3 mps 749 mmHg 71%
    06:00 -2°C° 0 mm 3 mps 749 mmHg 70%
    07:00 -2°C° 0 mm 3 mps 748 mmHg 70%
    08:00 0°C° 0 mm 3 mps 748 mmHg 66%
    09:00 0°C° 0 mm 4 mps 748 mmHg 62%
    10:00 +1°C° 0 mm 4 mps 748 mmHg 58%
    11:00 +3°C° 0 mm 4 mps 748 mmHg 57%
    12:00 +4°C° 0 mm 4 mps 747 mmHg 56%
    13:00 +4°C° 0 mm 4 mps 747 mmHg 55%
    14:00 +4°C° 0.1 mm 3 mps 747 mmHg 58%
    15:00 +3°C° 0.1 mm 3 mps 747 mmHg 61%
    16:00 +3°C° 0.1 mm 3 mps 746 mmHg 64%
    17:00 +2°C° 0.2 mm 3 mps 746 mmHg 65%
    18:00 +2°C° 0.2 mm 3 mps 747 mmHg 67%
    19:00 +1°C° 0.2 mm 3 mps 747 mmHg 68%
    20:00 +1°C° 0.3 mm 3 mps 747 mmHg 70%
    21:00 +1°C° 0.3 mm 3 mps 747 mmHg 71%
    22:00 +1°C° 0.3 mm 3 mps 747 mmHg 73%
    23:00 +1°C° 0.3 mm 3 mps 747 mmHg 76%

    Day after tomorrow, 21 February, Wednesday

    Time Temperature Precipitation Wind Pressure Humidity
    00:00 0°C° 0.3 mm 3 mps 747 mmHg 78%
    01:00 0°C° 0.3 mm 3 mps 747 mmHg 80%
    02:00 0°C° 0.3 mm 3 mps 747 mmHg 81%
    03:00 0°C° 0.3 mm 3 mps 747 mmHg 82%
    04:00 0°C° 0.3 mm 3 mps 747 mmHg 83%
    05:00 0°C° 0.1 mm 3 mps 747 mmHg 83%
    06:00 -1°C° 0.1 mm 3 mps 747 mmHg 82%
    07:00 -1°C° 0.1 mm 3 mps 747 mmHg 82%
    08:00 0°C° 0 mm 3 mps 747 mmHg 79%
    09:00 +1°C° 0 mm 3 mps 748 mmHg 76%
    10:00 +2°C° 0 mm 3 mps 748 mmHg 72%
    11:00 +3°C° 0 mm 3 mps 748 mmHg 70%
    12:00 +4°C° 0 mm 3 mps 747 mmHg 68%
    13:00 +4°C° 0 mm 3 mps 747 mmHg 66%
    14:00 +4°C° 0 mm 3 mps 747 mmHg 68%
    15:00 +4°C° 0 mm 3 mps 747 mmHg 70%
    16:00 +3°C° 0 mm 3 mps 747 mmHg 72%
    17:00 +1°C° 0 mm 4 mps 747 mmHg 73%
    18:00 0°C° 0 mm 4 mps 747 mmHg 75%
    19:00 -1°C° 0 mm 4 mps 747 mmHg 77%
    20:00 -2°C° 0 mm 4 mps 747 mmHg 77%
    21:00 -2°C° 0 mm 4 mps 747 mmHg 77%
    22:00 -3°C° 0 mm 4 mps 747 mmHg 77%
    23:00 -4°C° 0 mm 5 mps 747 mmHg 76%

    22 February, Thursday

    Time Temperature Precipitation Wind Pressure Humidity
    00:00 -4°C° 0 mm 5 mps 748 mmHg 76%
    01:00 -4°C° 0 mm 5 mps 748 mmHg 76%
    02:00 -4°C° 0 mm 5 mps 747 mmHg 76%
    03:00 -4°C° 0 mm 5 mps 747 mmHg 76%
    04:00 -4°C° 0 mm 5 mps 747 mmHg 75%
    05:00 -2°C° 0 mm 5 mps 747 mmHg 75%
    06:00 -2°C° 0 mm 5 mps 747 mmHg 75%
    07:00 -2°C° 0 mm 5 mps 747 mmHg 75%
    08:00 -1°C° 0 mm 5 mps 747 mmHg 72%
    09:00 0°C° 0 mm 5 mps 747 mmHg 69%
    10:00 +1°C° 0 mm 6 mps 747 mmHg 66%
    11:00 +1°C° 0 mm 6 mps 747 mmHg 65%
    12:00 +2°C° 0 mm 5 mps 746 mmHg 64%
    13:00 +3°C° 0 mm 5 mps 746 mmHg 62%
    14:00 +2°C° 0 mm 5 mps 746 mmHg 64%
    15:00 +2°C° 0 mm 5 mps 746 mmHg 65%
    16:00 +2°C° 0 mm 5 mps 746 mmHg 67%
    17:00 +1°C° 0 mm 5 mps 746 mmHg 69%
    18:00 0°C° 0 mm 5 mps 746 mmHg 72%
    19:00 -1°C° 0 mm 5 mps 746 mmHg 75%
    20:00 -2°C° 0 mm 5 mps 747 mmHg 75%
    21:00 -2°C° 0 mm 5 mps 747 mmHg 75%
    22:00 -2°C° 0 mm 5 mps 747 mmHg 75%
    23:00 -2°C° 0 mm 5 mps 747 mmHg 75%

    23 February, Friday

    Time Temperature Precipitation Wind Pressure Humidity
    00:00 -2°C° 0 mm 5 mps 747 mmHg 75%
    01:00 -4°C° 0 mm 5 mps 747 mmHg 74%
    02:00 -4°C° 0 mm 5 mps 747 mmHg 74%
    03:00 -2°C° 0 mm 5 mps 747 mmHg 74%
    04:00 -2°C° 0 mm 5 mps 747 mmHg 73%
    05:00 -2°C° 0 mm 5 mps 747 mmHg 73%
    06:00 -2°C° 0 mm 5 mps 747 mmHg 72%
    07:00 -2°C° 0 mm 5 mps 747 mmHg 71%
    08:00 -2°C° 0 mm 5 mps 747 mmHg 69%
    09:00 -1°C° 0 mm 5 mps 747 mmHg 66%
    10:00 0°C° 0 mm 5 mps 747 mmHg 64%
    11:00 -1°C° 0 mm 6 mps 747 mmHg 63%
    12:00 -1°C° 0 mm 6 mps 747 mmHg 63%
    13:00 +1°C° 0 mm 6 mps 747 mmHg 62%
    14:00 -1°C° 0 mm 6 mps 747 mmHg 63%
    15:00 -1°C° 0 mm 6 mps 747 mmHg 64%
    16:00 -2°C° 0 mm 6 mps 747 mmHg 65%
    17:00 -3°C° 0 mm 7 mps 747 mmHg 65%
    18:00 -3°C° 0 mm 7 mps 747 mmHg 65%
    19:00 -4°C° 0 mm 7 mps 748 mmHg 64%
    20:00 -6°C° 0 mm 7 mps 748 mmHg 63%
    21:00 -7°C° 0 mm 7 mps 748 mmHg 62%
    22:00 -7°C° 0 mm 7 mps 748 mmHg 61%
    23:00 -8°C° 0 mm 8 mps 748 mmHg 59%

    24 February, Saturday

    Time Temperature Precipitation Wind Pressure Humidity
    00:00 -10°C° 0 mm 8 mps 748 mmHg 57%
    01:00 -10°C° 0 mm 8 mps 749 mmHg 55%
    02:00 -11°C° 0 mm 8 mps 749 mmHg 53%
    03:00 -11°C° 0 mm 8 mps 749 mmHg 52%
    04:00 -11°C° 0 mm 9 mps 749 mmHg 50%
    05:00 -12°C° 0 mm 9 mps 749 mmHg 50%
    06:00 -12°C° 0 mm 9 mps 749 mmHg 49%
    07:00 -12°C° 0 mm 9 mps 749 mmHg 49%
    08:00 -11°C° 0 mm 8 mps 750 mmHg 46%
    09:00 -11°C° 0 mm 8 mps 750 mmHg 43%
    10:00 -10°C° 0 mm 8 mps 751 mmHg 41%
    11:00 -8°C° 0 mm 8 mps 751 mmHg 39%
    12:00 -8°C° 0 mm 7 mps 751 mmHg 37%
    13:00 -7°C° 0 mm 7 mps 751 mmHg 35%
    14:00 -6°C° 0 mm 6 mps 751 mmHg 36%
    15:00 -8°C° 0 mm 6 mps 751 mmHg 37%
    16:00 -7°C° 0 mm 5 mps 751 mmHg 38%
    17:00 -7°C° 0 mm 5 mps 752 mmHg 39%
    18:00 -8°C° 0 mm 4 mps 752 mmHg 41%
    19:00 -9°C° 0 mm 4 mps 752 mmHg 42%
    20:00 -8°C° 0 mm 3 mps 752 mmHg 43%
    21:00 -7°C° 0 mm 2 mps 752 mmHg 43%
    22:00 -7°C° 0 mm 2 mps 752 mmHg 44%
    23:00 -6°C° 0 mm 1 mps 752 mmHg 45%
    Show more